Location: *
(38.9800°N, 16.0500°E)
Time: 18:52:18
(UTC+00:00)

deb Chang Zheng 4 - Pass Details

Date: 07 April 2020
Orbit: 605 x 626 km, 98.6° (Epoch: 06 June)

Event Time Altitude Azimuth Distance (km) Brightness Sun altitude
Rises 03:05:12 0° 3° (N) 2,898 7.4 -16.7°
Reaches altitude 10° 03:07:32 10° 354° (N) 1,992 6.4 -16.3°
Maximum altitude 03:11:25 34° 290° (WNW) 1,037 4.3 -15.6°
Enters shadow 03:12:51 27° 253° (WSW) 1,212 4.4 -15.4°
